星链-32178 (STARLINK-32178)

导读

STARLINK-32178是美国SpaceX公司星链(Starlink)卫星互联网项目的成员,于2024年8月10日由猎鹰9号火箭从佛罗里达卡角发射升空,属于Starlink Group 8-3任务的21颗第二代星链卫星之一。 星链项目旨在通过近地轨道卫星星座,为全球尤其是偏远地区提供低 latency、高速的宽带互联网接入服务,该卫星入轨后将助力SpaceX扩展星链网络覆盖,推进直连手机等服务的商业化部署。

Basic Information
目录编号:
60413
目录名称:
STARLINK-32178
国际标识:
2024-141R
轨道中心:
EARTH
卫星名称:
星链-32178 (STARLINK-32178)
卫星全名:
星链-32178 (STARLINK-32178)
卫星状态:
在轨 (已飞行755 天)
发射日期:
2024-08-10 UTC
国别 :
美国 (US)
星等 :
--
Orbit Information
数据来源 国际轨道数据 AOE轨道数据
星历时间 2026-09-03T08:20:39+0800
1天前
查看轨道信息
2026-09-03T23:00:00+0800
13小时前
查看轨道信息
半长轴 6840.854km 6840.848km
偏心率 0.0001412 0.0001568
轨道倾角 53.160° 53.160°
近地点辐角 100.828° 108.686°
升交点赤经 135.117° 132.266°
平近点角 259.288° 26.516°
近地点 461.751km 461.638km
远地点 463.683km 463.784km
周期 93.848分钟 93.848分钟
每日圈数 15.343955 15.343977
Detailed Information
卫星平台:
Starlink v2.0 mini
运营商:
太空探索技术公司
运营商所在国:
美国
制造商(研发单位):
太空探索技术公司
制造商所在国:
美国
使用方式:
暂无
Satellite Introduction
星链(Starlink)计划是由太空探索技术公司(SpaceX)提出的一个巨型低轨卫星互联网星座项目,计划在2019年至2024年间在太空搭建由约1.2万颗卫星组成的“星链”网络,其中1584颗将部署在地球上空550千米处的近地轨道,并从2020年开始工作。该卫星仍在工作。
2D Orbit Map
3D Orbit Map
Orbit Altitude Analysis Chart
Orbit Inclination Analysis Chart
Orbit Comprehensive Analysis Chart
View Comprehensive Chart
Conjunction Data List
Event ID Objects TCA Miss Dist (km) Collision Risk Probability Collision Risk Index (CRI) Action
CDM_260904-174906-034506-041321
2026-09-04T
17:49:45+0000
2.685 km
极远距离
1.385031E-6 低风险 0.38
CDM_260904-190106-041306-470521
2026-09-04T
19:01:39+0000
2.581 km
极远距离
1.326631E-6 低风险 0.37
CDM_260904-094206-041306-460321
2026-09-04T
09:42:22+0000
2.896 km
极远距离
1.05266E-6 低风险 0.35
CDM_260828-014806-041306-828121
2026-08-28T
01:48:32+0000
2.804 km
极远距离
1.005858E-6 低风险 0.35